Baton Rouge, LA

2:17 PM CST on January 21, 2017 (GMT -0600)
Baton Rouge Metropolitan Airport

Weather History for KBTR - April, 2014

Change the Weather History Date:

Friday, April 11, 2014

  Actual Average Record
Temperature  
Mean Temperature 66 °F 67 °F  
Max Temperature 80 °F 78 °F 90 °F (1963)
Min Temperature 52 °F 56 °F 37 °F (1973)
Degree Days  
Heating Degree Days 0 2  
Month to date heating degree days 18 30  
Since 1 July heating degree days 1945 1532  
Cooling Degree Days 1 4  
Month to date cooling degree days 36 38  
Year to date cooling degree days 82 127  
Growing Degree Days 16 (Base 50)    
Moisture  
Dew Point 54 °F    
Average Humidity 66    
Maximum Humidity 89    
Minimum Humidity 42    
Precipitation  
Precipitation 0.00 in 0.16 in 5.57 in (1995)
Month to date precipitation 2.90 1.71  
Year to date precipitation 15.39 16.88  
Snow  
Snow 0.00 in - - ()
Month to date snowfall 0.0  
Since 1 July snowfall 0.4  
Snow Depth 0.00 in    
Sea Level Pressure  
Sea Level Pressure 30.13 in    
Wind  
Wind Speed 6 mph (SE)    
Max Wind Speed 15 mph    
Max Gust Speed 20 mph    
Visibility 10 miles    
Events      
T = Trace of Precipitation, MM = Missing Value Source: NWS Daily Summary

Daily Weather History Graph

Daily Weather History Graph

Search for Another Location

Airport or City:

Trip Planner

Search our weather history database for the weather conditions in past years. The results will help you decide how hot, cold, wet, or windy it might be!

Date:

Astronomy

Apr. 11, 2014 Rise Set
Actual Time 6:41 AM CDT 7:29 PM CDT
Civil Twilight 6:17 AM CDT 7:54 PM CDT
Nautical Twilight 5:48 AM CDT 8:23 PM CDT
Astronomical Twilight 5:18 AM CDT 8:53 PM CDT
Moon 4:23 PM CDT (4/11) 4:22 AM CDT (4/11)
Length of Visible Light 13h 37m
Length of Day
12h 48m
Waxing Gibbous, 87% of the Moon is Illuminated
Apr 11
Waxing Gibbous
Apr 15
Full
Apr 22
Last Quarter
Apr 29
New
May 6
First Quarter

Hourly Weather History & Observations

Time (CDT) Temp. Dew Point Humidity Pressure Visibility Wind Dir Wind Speed Gust Speed Precip Events Conditions
12:53 AM 55.9 °F 51.1 °F 84% 30.16 in 10.0 mi ESE 3.5 mph - N/A   Clear
1:53 AM 55.9 °F 51.1 °F 84% 30.14 in 10.0 mi East 3.5 mph - N/A   Clear
2:53 AM 52.0 °F 48.9 °F 89% 30.12 in 10.0 mi East 4.6 mph - N/A   Clear
3:53 AM 54.0 °F 50.0 °F 86% 30.12 in 10.0 mi ENE 4.6 mph - N/A   Clear
4:53 AM 55.0 °F 51.1 °F 86% 30.14 in 10.0 mi NE 3.5 mph - N/A   Overcast
5:53 AM 55.9 °F 51.1 °F 84% 30.15 in 10.0 mi NNE 3.5 mph - N/A   Overcast
6:53 AM 57.0 °F 52.0 °F 83% 30.16 in 10.0 mi Calm Calm - N/A   Overcast
7:53 AM 59.0 °F 54.0 °F 83% 30.17 in 10.0 mi NE 3.5 mph - N/A   Overcast
8:53 AM 66.0 °F 57.0 °F 73% 30.19 in 10.0 mi SE 4.6 mph - N/A   Overcast
9:53 AM 70.0 °F 55.9 °F 61% 30.19 in 10.0 mi South 8.1 mph - N/A   Partly Cloudy
10:53 AM 73.0 °F 55.9 °F 55% 30.20 in 10.0 mi South 10.4 mph - N/A   Mostly Cloudy
11:53 AM 73.9 °F 55.0 °F 52% 30.20 in 10.0 mi South 10.4 mph - N/A   Mostly Cloudy
12:53 PM 75.0 °F 55.9 °F 51% 30.18 in 10.0 mi SSW 11.5 mph - N/A   Mostly Cloudy
1:53 PM 75.9 °F 54.0 °F 46% 30.16 in 10.0 mi South 6.9 mph - N/A   Mostly Cloudy
2:53 PM 75.9 °F 53.1 °F 45% 30.13 in 10.0 mi South 10.4 mph - N/A   Mostly Cloudy
3:53 PM 77.0 °F 54.0 °F 45% 30.10 in 10.0 mi Variable 3.5 mph - N/A   Scattered Clouds
4:53 PM 79.0 °F 54.0 °F 42% 30.08 in 10.0 mi SSW 12.7 mph - N/A   Scattered Clouds
5:53 PM 77.0 °F 55.0 °F 47% 30.07 in 10.0 mi South 10.4 mph - N/A   Scattered Clouds
6:53 PM 75.0 °F 54.0 °F 48% 30.08 in 10.0 mi SSW 10.4 mph - N/A   Scattered Clouds
7:53 PM 71.1 °F 54.0 °F 55% 30.08 in 10.0 mi South 6.9 mph - N/A   Clear
8:53 PM 66.0 °F 55.0 °F 68% 30.09 in 10.0 mi East 5.8 mph - N/A   Clear
9:53 PM 66.9 °F 55.0 °F 66% 30.11 in 10.0 mi SSE 6.9 mph - N/A   Clear
10:53 PM 66.0 °F 55.9 °F 70% 30.11 in 10.0 mi South 5.8 mph - N/A   Clear
11:53 PM 62.1 °F 55.0 °F 78% 30.11 in 10.0 mi SE 3.5 mph - N/A   Clear